Content
SEND FEEDBACK

Daily
Averages
Monthly
Summary
United States of America

CROWS LANDING, CALIFORNIA


Home > North America > United States > California
Elevation: 165 feet     Latitude: 37 24N     Longitude: 121 08W

WEATHER
 
SELECT A DAY
Number of Records: 174,125;   Date Range: 1/1/95 - 9/29/14
 
SHARE

PRINT THIS DATA

[ ← Previous Day ]
WEATHER ALMANAC - FEBRUARY 13, 2013
[ Next Day → ]
[ °C ]   °F
Weather ElementAverageHighLow
Temperature48.7 °F63 °F (2:53 pm)36 °F (3:53 am)
Dewpoint37.3 °F39 °F (9:53 am)34 °F (3:53 am)
Humidity68.3 %96 % (7:53 am)39 % (3:53 pm)
Barometer30.28 in30.35 in (8:53 am)30.21 in (5:53 pm)
Wind Speed0.8 mph5.8 mph (2:53 pm)
Weather ElementAverage
Visibility7.7 mi
Wind DirectionENE (53 °)

Weather ElementTotal
Precipitation---
Heating Degree Days15.5 (Base 65)
Averaged from 23 records on February 13, 2013
WEATHER CONDITIONS BREAKOUT
WIND DIRECTION BREAKOUT
WEATHER BY HOUR - FEBRUARY 13, 2013
[ °C ]   °F
Local TimeTemperatureDewpointHumidityBarometerVisibilityWind DirectionWind SpeedGust SpeedPrecipitationEventsConditions
1:53 AM39.9 °F36.0 °F86 %30.33 in7.0 miCalmClear
2:53 AM39.0 °F35.1 °F86 %30.32 in7.0 miCalmClear
3:53 AM36.0 °F34.0 °F93 %30.31 in6.0 miCalmClear
4:53 AM37.0 °F35.1 °F93 %30.31 in6.0 miNorthClear
5:53 AM36.0 °F34.0 °F93 %30.31 in6.0 miCalmClear
6:53 AM36.0 °F34.0 °F93 %30.32 in5.0 miCalmClear
7:53 AM37.0 °F36.0 °F96 %30.34 in5.0 miCalmClear
8:53 AM45.0 °F37.9 °F76 %30.35 in9.0 miCalmClear
9:53 AM52.0 °F39.0 °F61 %30.35 in8.0 miCalmClear
10:53 AM55.0 °F39.0 °F55 %30.34 in8.0 miCalmClear
11:53 AM57.9 °F39.0 °F49 %30.32 in10.0 miCalmClear
12:53 PM59.0 °F37.9 °F46 %30.29 in9.0 miCalmClear
1:53 PM61.0 °F37.9 °F42 %30.26 in10.0 miWNW (300°)3.5 mphClear
2:53 PM63.0 °F37.9 °F40 %30.24 in10.0 miNNW (340°)5.8 mphClear
3:53 PM62.1 °F37.0 °F39 %30.23 in9.0 miWest (280°)4.6 mphClear
4:53 PM61.0 °F37.9 °F42 %30.22 in9.0 miWNW (300°)4.6 mphClear
5:53 PM59.0 °F37.9 °F46 %30.21 in10.0 miCalmClear
6:53 PM54.0 °F39.0 °F57 %30.22 in9.0 miCalmClear
7:53 PM51.1 °F39.0 °F63 %30.22 in8.0 miCalmClear
8:53 PM46.9 °F39.0 °F74 %30.22 in7.0 miCalmClear
9:53 PM46.9 °F39.0 °F74 %30.22 in7.0 miCalmClear
10:53 PM45.0 °F39.0 °F80 %30.23 in7.0 miCalmClear
11:53 PM41.0 °F37.0 °F86 %30.23 in6.0 miCalmClear
Hourly data recorded from KMOD, located miles away from Crows Landing, California







STORIES FROM OUR PARTNERS